sat.trackr.live / text

‹ back to catalog

STARLINK-36669

NORAD 68675 · 2026-077P

PAYLOAD ACTIVE UNKNOWN

§ Identity

Operator
Country
US
Launch date
2026-04-11
Launch site
AFWTR
Launch vehicle
Mass (kg)
RCS (m²)

Purposes: comms

External: N2YO · Heavens-Above · Gunter

§ Orbital elements

Epoch: 2026-09-20T02:39:08.036352Z

Period
93.91 min
Inclination
97.2866°
Eccentricity
0.0000991
Mean motion
15.33457809 rev/d
Perigee alt
464.8 km
Apogee alt
466.2 km
Semi-major
6,843.6 km
B*
3.9108e-4
RAAN
133.0182°
Arg perigee
87.9071°
Mean anomaly
272.2285°
Rev number
2,495

§ Raw data

STARLINK-366691 68675U 26077P   26263.11050968  .00012577  00000+0  39108-3 0  99982 68675  97.2866 133.0182 0000991  87.9071 272.2285 15.33457809 24954

JSON: /api/v1/satellites/68675 · /tle

For live sub-satellite position, see the globe view (requires WebGL).

§ Visibility from observer

Set your observer location to see the next 7 days of passes ≥ 10°. The values pass through the URL so the page stays shareable.

No JS? Fill the form by hand. The geolocation button needs JavaScript.